7 * 24
多渠道服务支持
COSMOS 1414 是一颗俄罗斯 GLONASS 卫星,于 1982 年 12 月 24 日由联盟号火箭发射。它属于苏联/俄罗斯的全球导航卫星系统(GLONASS),用于提供精确的定位和时间同步服务。该卫星运行在中地球轨道,设计用于支持军事和民用导航需求。COSMOS 1414 在 GLONASS 系统的早期发展中发挥了重要作用,尽管其具体任务细节多为机密。该卫星最终退役并进入长期轨道驻留状态。
| 数据来源 | 国际轨道数据 |
| 星历时间: | 2025-10-28T17:48:52+0800 3天前 查看轨道信息 |
| 半长轴: | 25507.889km |
| 偏心率: | 0.0078017 |
| 轨道倾角: | 64.659° |
| 近地点辐角 | 33.474° |
| 升交点赤经 | 79.174° |
| 平近点角 | 298.893° |
| 近地点: | 18930.749km |
| 远地点: | 19328.759km |
| 周期: | 675.727分钟 |
| 每日圈数: | 2.131037 |